Theta_e
289 289 289 289 289 289 289 289 289 289 288 288 288 288 287 287 287 287 287 287 287 287 286 287 287 288 288 287 285 285 284 284 283 283 283 283 283 283 284 284 284 284 284 284 284 284 284 284 285 284 284 284 284 284 284 284 284 283 283 282 282 282 281
288 288 288 288 288 288 288 288 288 288 287 287 287 287 287 286 286 286 286 286 286 286 286 286 286 287 287 286 285 285 284 283 283 282 282 282 282 283 283 283 283 283 284 283 283 283 283 283 283 283 283 283 283 284 283 283 283 283 283 282 282 281 281
288 288 288 288 288 288 288 287 287 287 287 287 286 286 286 286 285 285 285 285 285 285 285 285 285 285 285 285 285 285 284 283 282 281 281 281 281 282 282 282 282 282 283 283 282 282 282 282 282 283 283 283 282 282 282 282 283 282 282 281 281 281 280
289 288 288 288 288 288 288 287 287 287 286 286 286 286 285 285 285 285 285 285 285 284 284 284 284 285 284 284 284 284 283 282 282 281 281 281 281 281 281 281 281 282 282 282 282 282 282 282 282 282 283 282 282 281 281 281 281 281 280 280 280 280 280
290 289 288 288 288 287 287 287 287 286 286 286 286 285 285 285 285 284 284 284 284 284 284 284 284 284 284 283 283 283 283 282 282 281 280 280 280 280 280 280 280 281 281 281 281 281 281 281 281 281 282 282 281 280 280 280 280 279 279 279 279 280 280
290 289 289 288 287 287 286 286 286 286 285 285 285 285 284 284 284 284 284 284 284 283 283 283 283 283 283 283 283 283 283 282 282 281 280 280 279 279 279 279 280 280 280 280 281 281 280 280 280 281 281 281 280 280 279 279 279 279 279 279 279 279 279
289 289 289 289 288 287 286 286 285 285 284 284 284 284 284 284 284 283 283 283 283 283 283 283 283 283 283 282 282 283 282 282 281 281 280 280 279 279 278 279 279 279 279 280 280 280 280 280 280 280 281 280 280 279 278 278 278 278 278 278 278 279 279
286 287 288 288 288 288 287 286 285 284 284 283 283 283 283 283 283 283 283 283 283 283 283 283 283 282 282 282 282 282 282 281 281 280 280 279 278 278 278 278 278 278 278 279 279 279 279 279 279 280 279 279 278 278 277 277 277 277 278 278 278 279 279
284 284 285 286 286 287 287 286 285 284 283 283 282 282 282 282 282 282 282 282 282 282 282 282 282 282 282 282 282 282 281 281 280 280 280 279 278 277 277 277 277 277 277 277 277 278 278 278 278 279 279 278 278 278 278 277 277 277 277 278 278 279 279
282 282 282 283 283 284 285 286 285 284 283 282 282 281 281 281 281 281 281 281 281 281 281 281 281 281 281 281 281 281 281 280 280 280 280 279 278 277 277 277 277 277 277 277 277 277 277 277 277 278 278 278 278 278 277 277 276 277 277 277 277 278 279
280 280 281 281 281 282 282 283 284 284 283 283 282 281 281 281 281 280 280 280 280 280 280 280 280 280 280 280 280 280 280 280 280 279 279 279 278 277 277 276 276 276 276 276 276 276 276 276 277 278 277 278 277 277 276 276 276 276 277 276 276 277 279
279 279 279 279 280 280 280 281 281 282 282 282 281 280 280 280 280 280 280 280 280 280 280 280 280 280 280 280 280 279 279 279 279 279 279 278 278 277 276 276 276 276 275 275 275 276 276 276 276 276 276 277 277 276 276 276 276 276 276 276 276 277 278
278 279 279 279 279 279 279 279 279 280 280 280 280 279 278 278 278 279 279 279 279 279 279 279 279 279 279 279 279 279 279 278 278 278 278 278 277 277 276 276 275 275 275 275 275 275 275 275 275 275 276 276 276 276 276 276 276 276 276 276 277 277 278
277 277 277 278 278 278 278 278 278 278 278 278 278 277 277 277 277 277 277 278 278 278 278 278 278 278 278 279 278 278 278 278 278 277 277 277 277 277 276 276 275 275 274 274 274 274 274 274 274 274 275 275 275 275 275 275 275 276 276 276 276 277 277
276 276 276 276 277 277 277 277 277 277 277 277 276 276 276 276 276 276 276 276 276 277 277 277 277 277 277 277 277 277 277 277 277 277 277 276 276 277 276 276 275 275 274 274 274 274 274 273 273 273 273 273 273 274 274 274 275 275 275 275 275 274 274
275 275 275 275 275 276 276 276 276 276 276 276 276 275 275 275 275 276 276 276 276 276 276 276 276 276 276 276 276 277 277 277 277 276 276 276 276 276 276 276 276 275 274 274 274 273 273 273 273 272 272 272 272 272 273 273 273 274 273 273 273 273 273
274 274 274 274 274 274 275 275 275 275 275 275 274 274 273 273 274 274 275 275 275 275 275 275 275 275 276 276 276 276 276 276 276 276 276 276 276 275 275 275 275 275 274 274 273 273 272 272 272 272 272 272 272 272 272 272 272 273 272 272 273 272 273
273 273 273 273 273 273 273 274 273 273 273 273 273 272 272 272 272 272 273 273 273 274 274 274 274 274 275 275 275 275 275 275 276 276 276 276 276 275 275 275 275 274 274 274 273 272 272 271 271 271 271 271 271 271 271 272 272 272 272 272 273 272 272
272 272 272 272 272 272 272 272 272 272 272 272 272 271 271 271 271 271 271 272 272 272 272 272 273 273 273 274 274 274 274 275 275 275 275 275 275 275 275 275 274 273 273 273 273 273 272 271 271 270 270 270 270 270 271 271 272 272 272 272 272 272 271
271 271 271 271 271 272 271 271 271 271 271 271 271 270 270 270 270 270 270 270 270 271 271 271 271 272 272 272 273 273 273 274 274 274 274 274 274 274 275 275 274 273 273 273 273 273 272 272 271 270 270 270 270 270 270 270 270 271 271 272 272 272 272
270 270 271 271 271 271 271 270 270 270 270 270 270 270 269 269 269 269 269 269 269 269 269 270 270 270 271 271 271 272 272 273 273 273 273 274 274 274 274 274 273 273 273 272 272 272 271 271 271 270 269 269 269 270 270 270 270 270 271 272 273 273 272
270 270 270 270 270 270 270 270 270 269 269 269 269 269 269 269 268 268 268 268 268 268 268 269 269 269 269 270 270 270 271 272 272 272 273 273 273 273 273 273 273 272 272 271 271 270 270 270 270 270 269 269 269 269 269 270 270 270 271 272 272 272 272
269 269 270 270 270 270 270 269 269 269 269 269 269 269 269 268 268 268 267 267 267 267 267 268 268 268 268 269 269 269 270 270 271 271 272 272 272 272 273 272 272 271 271 270 270 269 269 269 269 269 269 269 269 269 269 270 271 271 271 271 271 271 271
268 268 268 269 269 269 269 269 269 269 268 268 268 268 268 268 268 267 267 267 267 267 267 267 267 267 267 268 268 269 269 269 270 271 271 271 272 272 272 272 271 270 270 269 269 268 268 268 269 269 269 270 270 270 270 270 270 271 270 270 269 269 270
267 267 267 268 268 268 269 269 269 269 268 268 268 268 268 268 267 267 266 266 266 266 266 266 267 267 267 267 268 268 268 268 269 270 271 271 271 271 271 271 270 270 269 268 268 268 268 268 268 269 269 270 270 270 270 270 270 269 269 269 268 268 268
267 266 266 267 267 267 268 268 268 268 268 268 268 268 268 268 267 267 266 266 266 266 266 266 266 267 267 267 267 267 267 268 268 269 270 271 270 269 269 270 269 269 268 268 268 268 268 268 268 269 269 269 269 269 269 269 269 269 269 269 268 267 267
266 265 265 265 265 266 266 267 267 267 267 267 267 267 268 267 267 267 266 266 266 266 266 266 266 266 267 267 267 267 267 267 268 269 270 270 270 269 269 268 268 269 268 268 268 268 268 268 268 268 268 268 268 269 269 269 268 268 268 268 268 267 267
265 265 264 264 264 264 265 266 266 266 266 265 265 266 266 267 267 266 266 265 265 265 265 265 266 266 266 267 267 267 267 267 268 268 269 270 270 270 269 268 268 268 268 268 268 268 268 268 267 267 267 268 268 268 268 268 268 268 268 268 267 267 267
264 264 264 264 264 264 264 264 265 265 265 264 264 265 265 265 265 265 265 265 264 264 264 264 265 265 265 266 266 266 266 267 267 268 269 269 269 270 269 269 268 268 267 267 268 267 267 267 267 267 267 267 267 267 267 267 267 267 267 267 267 267 267
264 264 264 264 264 263 263 263 264 264 264 264 264 264 265 265 265 265 265 265 264 263 264 264 264 265 265 265 265 265 266 267 267 268 268 269 269 269 269 269 268 268 267 267 268 268 267 267 267 267 267 266 266 266 266 266 266 266 266 266 266 266 266
264 264 264 264 263 263 263 263 264 264 264 264 264 264 264 265 265 265 265 264 263 263 264 264 264 264 264 264 264 264 265 266 267 267 268 268 268 268 268 268 268 268 267 267 267 267 267 267 266 266 266 266 266 266 266 266 266 265 265 265 265 265 266
264 264 264 264 263 263 263 263 263 263 263 263 263 264 264 264 264 264 265 264 264 263 264 264 264 264 264 264 263 264 264 265 266 267 267 267 268 268 268 268 267 267 267 267 267 267 267 267 267 267 266 266 266 265 265 265 265 265 265 265 265 265 265
264 264 264 263 263 263 262 262 263 263 263 263 263 263 263 264 264 264 264 264 264 263 264 264 264 264 264 264 263 263 263 264 265 266 266 266 267 267 267 267 267 267 266 266 266 266 266 266 266 266 266 266 265 265 265 264 264 264 264 264 264 264 264
264 264 263 263 263 263 262 262 262 263 263 263 263 263 263 263 263 264 264 264 263 263 263 263 264 264 264 263 263 263 263 263 264 264 264 265 265 265 266 266 265 265 265 265 265 265 265 265 265 265 265 265 265 264 264 264 264 264 264 264 264 264 264
263 263 263 263 263 262 262 262 262 262 263 263 263 263 262 262 263 263 264 264 263 263 263 263 263 263 263 263 263 263 263 263 263 263 263 264 264 264 264 264 264 264 264 264 264 264 264 264 264 264 264 264 264 264 264 264 263 263 263 263 263 263 263
262 263 263 263 263 262 262 262 262 262 263 263 263 262 262 261 262 262 263 263 263 263 263 262 262 262 262 262 262 262 262 262 263 263 263 263 263 263 263 263 263 263 263 263 263 263 263 263 263 263 263 263 263 263 263 263 263 263 263 263 263 263 263
Wind_Speed
22 23 24 25 25 26 27 28 29 29 30 31 33 33 33 33 33 35 37 37 38 39 41 43 45 47 48 50 52 54 55 56 56 56 56 56 56 56 56 54 52 52 54 52 48 46 43 41 39 37 37 37 36 36 37 37 35 34 34 34 34 33 33
23 23 25 26 27 28 28 30 30 31 32 34 35 35 35 34 34 36 36 37 38 38 39 41 43 44 45 46 49 52 53 55 55 55 55 56 56 57 57 56 54 53 53 52 51 48 46 44 42 41 40 40 39 39 39 39 38 36 36 36 35 34 34
23 24 25 27 28 29 30 31 32 33 34 35 36 37 37 36 36 37 37 37 38 37 37 39 41 43 43 44 47 49 51 53 54 55 55 55 56 56 57 56 55 54 53 52 51 50 48 47 45 44 43 42 41 40 40 41 41 39 38 37 36 35 35
24 25 26 27 28 29 30 31 32 33 35 36 37 38 38 38 38 38 39 39 38 37 37 38 40 41 41 42 45 47 49 51 53 54 55 55 55 56 56 56 55 54 54 53 52 52 51 49 47 46 45 44 43 42 42 43 43 42 40 39 38 37 36
24 25 26 28 28 29 30 31 32 33 34 36 36 37 38 38 39 39 40 40 40 39 39 39 40 40 39 41 44 46 47 49 51 52 53 54 55 55 55 55 55 55 54 53 53 53 53 50 48 47 46 45 44 44 44 44 44 44 43 41 40 39 39
24 25 27 28 28 29 30 30 31 33 34 35 36 37 38 38 39 40 40 41 41 41 41 41 42 41 41 42 43 45 45 46 48 50 52 53 53 54 54 54 55 55 54 55 55 55 54 53 52 49 48 47 46 45 45 45 45 45 45 44 43 41 40
25 25 27 28 29 30 30 31 31 32 33 34 36 37 38 39 40 41 41 42 42 42 42 42 43 43 43 44 44 45 45 45 46 48 49 51 51 51 52 53 55 55 54 55 56 55 56 55 54 52 50 49 46 45 46 46 47 48 47 46 44 43 41
26 26 27 28 29 30 31 31 32 32 33 34 35 36 38 39 40 41 42 42 42 43 43 44 44 44 44 44 45 45 45 45 45 46 47 49 49 49 51 52 53 53 54 55 55 56 56 55 55 54 52 50 47 48 49 49 48 49 48 46 45 44 43
27 27 28 28 29 30 31 32 32 32 33 34 34 36 37 38 39 41 42 43 43 44 45 45 45 45 45 45 45 45 45 45 45 45 47 47 48 48 49 51 52 53 54 54 55 56 55 54 55 56 55 54 53 53 52 50 48 48 48 46 46 46 46
28 28 29 29 29 29 30 31 31 31 32 33 34 35 36 37 39 40 41 43 44 45 46 46 46 46 46 46 46 46 46 45 45 46 46 47 47 48 49 50 51 52 53 54 54 56 55 54 57 58 57 56 56 54 52 50 48 48 47 46 47 48 48
30 29 29 30 30 30 30 30 30 30 31 31 32 33 35 37 38 39 41 42 44 45 46 46 47 47 47 47 47 47 47 46 46 46 46 46 48 49 49 50 51 52 53 53 54 55 54 55 58 58 56 56 55 53 52 50 48 47 47 48 49 50 49
30 30 30 30 31 31 30 30 29 29 29 29 29 30 32 35 37 38 40 41 43 44 45 46 46 47 47 48 47 47 47 47 47 47 46 46 47 49 50 51 51 52 52 53 54 54 54 56 57 55 54 55 54 53 51 49 48 48 49 49 50 50 49
29 29 30 30 31 32 32 31 29 28 28 28 27 27 28 31 34 37 39 41 42 43 43 44 45 46 47 48 48 47 47 47 47 47 46 46 47 49 51 52 52 53 53 53 53 53 55 55 54 53 54 53 51 50 48 48 49 49 49 50 51 51 49
26 27 28 29 30 31 32 32 30 29 28 26 26 25 26 28 31 35 38 40 42 42 43 44 44 46 47 47 47 48 47 46 46 46 46 46 47 48 50 52 53 54 54 53 54 55 55 54 52 51 51 49 47 45 44 45 45 46 47 48 49 48 45
26 26 26 27 28 30 31 31 30 29 28 27 25 24 25 27 30 33 36 39 40 42 43 44 45 47 47 47 48 48 47 46 45 44 45 46 47 48 49 51 53 54 54 54 55 56 55 54 52 51 49 46 43 41 40 40 41 41 42 43 43 43 41
26 27 27 27 27 28 29 29 29 28 28 27 25 23 24 27 29 32 35 37 38 39 41 43 44 46 48 49 49 49 48 47 45 44 44 45 46 47 47 49 51 52 53 53 54 54 54 53 53 51 49 46 43 41 40 39 40 41 41 40 41 42 41
26 26 27 27 27 27 28 28 27 27 27 26 25 24 24 26 29 32 35 36 37 37 39 41 42 44 46 47 48 48 48 47 46 45 45 45 46 46 47 49 49 50 51 51 51 52 52 52 52 52 50 48 46 45 42 40 42 43 42 42 43 44 43
26 26 25 26 26 26 27 27 27 26 26 26 24 23 24 26 28 32 34 35 36 36 37 39 40 41 42 44 46 46 45 46 46 46 46 45 45 46 48 49 48 48 48 48 48 49 49 50 50 50 49 48 47 46 44 44 44 43 42 44 45 45 43
26 26 25 25 25 24 25 26 25 24 24 25 24 23 23 25 27 30 33 34 35 36 36 37 38 39 40 41 42 43 43 44 45 46 46 44 45 47 48 47 46 46 47 47 47 47 47 48 48 48 49 49 48 45 44 45 45 43 43 45 46 44 41
27 27 27 26 25 25 24 25 25 24 23 23 24 24 24 25 26 29 31 33 34 36 37 37 37 38 38 38 39 40 40 42 44 45 44 43 45 48 47 44 43 44 45 46 46 46 45 45 47 48 49 49 49 47 45 45 45 44 44 45 45 44 43
27 28 28 27 26 26 24 24 24 24 24 23 23 23 24 25 26 27 29 32 34 35 36 37 37 37 37 37 37 37 37 38 40 42 42 42 44 45 43 41 42 43 43 44 45 44 44 44 44 46 48 48 48 47 46 45 44 44 44 44 45 45 45
28 28 29 28 27 26 25 24 24 24 24 24 24 23 23 24 26 26 27 30 33 34 35 35 35 36 36 36 36 35 35 35 36 38 39 40 39 38 38 40 42 42 42 43 43 43 43 44 43 44 45 47 47 46 46 44 43 43 43 44 45 45 45
28 29 30 30 28 27 26 25 25 24 25 25 25 24 23 23 24 24 25 28 32 34 34 34 34 34 34 34 35 35 33 32 32 33 35 36 35 34 36 39 41 41 42 42 42 42 42 43 43 43 43 44 45 44 44 43 41 41 42 43 44 45 45
28 29 30 31 30 29 27 26 26 25 25 25 25 25 24 22 22 23 24 26 30 32 33 34 34 33 32 31 32 33 32 30 29 29 30 31 32 33 34 38 41 41 41 41 41 41 41 41 41 41 40 40 39 38 39 40 40 41 43 44 43 43 43
28 29 30 31 31 31 30 28 27 26 25 26 26 25 24 23 23 22 23 25 27 29 30 32 34 34 33 30 29 30 30 28 27 26 25 27 32 35 36 38 40 40 39 40 40 39 39 39 39 37 36 34 33 34 35 37 39 41 42 43 42 41 40
28 28 30 31 32 32 32 31 29 28 26 26 26 26 25 24 23 23 23 24 26 27 28 30 31 32 33 32 30 30 29 27 25 24 23 25 31 36 39 39 39 38 37 37 37 36 36 36 34 33 32 31 31 33 34 35 35 35 36 38 38 39 39
28 29 30 31 32 33 33 32 31 29 28 27 27 28 27 27 26 25 24 25 25 25 26 28 29 29 30 30 29 29 28 25 22 22 24 26 29 35 38 38 37 36 35 35 34 33 32 32 31 31 30 30 30 31 31 31 31 30 30 32 33 35 38
28 28 29 31 32 33 34 34 32 30 29 28 28 29 28 28 28 27 26 26 25 25 25 27 28 28 27 26 25 25 24 23 22 23 26 28 29 32 36 36 35 34 33 33 32 31 31 30 31 31 30 30 30 30 30 29 28 28 28 28 29 32 34
28 28 28 30 30 30 32 34 34 31 29 28 28 27 27 27 27 26 26 25 25 25 26 27 27 27 25 22 20 19 20 22 23 25 26 28 30 32 32 31 31 31 31 31 31 31 31 31 31 31 31 30 30 30 30 29 29 29 29 28 29 32 33
25 26 27 28 28 26 28 31 33 30 28 27 27 26 26 25 25 24 24 23 22 24 26 27 27 26 24 20 17 17 19 22 24 25 26 28 30 31 29 27 26 28 29 30 30 31 31 31 30 30 30 30 31 31 31 31 31 31 30 30 31 32 32
24 24 24 24 25 26 26 28 29 28 27 26 25 25 25 24 24 23 22 21 21 23 25 25 24 24 23 20 17 17 19 22 24 26 27 28 30 30 28 27 27 27 29 30 31 32 32 31 31 31 31 32 32 33 33 32 32 31 31 31 32 32 33
23 22 22 22 23 24 26 26 26 26 26 25 24 24 24 23 23 23 22 20 20 22 24 23 22 22 21 19 18 18 19 21 24 26 28 29 30 30 29 28 27 27 28 29 31 32 33 34 35 35 35 35 35 34 33 33 33 33 33 33 33 33 33
22 21 22 22 21 22 24 24 24 24 24 24 23 23 23 23 23 22 21 20 20 22 22 21 21 20 20 19 19 19 19 21 23 25 26 27 28 28 28 27 27 27 28 30 31 32 33 34 35 35 36 36 35 35 35 34 34 34 33 33 34 34 34
23 21 21 21 21 21 22 22 22 23 23 23 22 21 21 22 23 22 20 19 19 21 21 21 20 19 19 19 19 19 20 21 22 24 26 28 29 30 30 31 31 31 31 31 30 29 29 29 29 29 30 31 31 32 33 34 34 34 34 34 34 34 34
26 23 21 21 21 21 21 21 21 22 22 21 21 20 20 21 22 22 20 18 18 19 20 20 20 20 19 19 19 19 19 20 21 23 25 27 28 29 30 30 30 29 28 26 25 24 24 23 23 24 24 25 27 28 29 31 31 32 32 33 33 33 32
29 26 23 21 20 20 20 21 21 21 21 21 20 19 19 20 22 22 21 20 20 19 19 20 20 21 20 20 20 20 19 19 20 20 21 23 24 25 25 25 24 24 23 22 22 21 21 20 21 21 21 22 24 25 26 27 28 28 29 30 30 30 30
Wind_Direction
287 287 287 285 283 282 281 280 280 279 279 277 276 276 275 274 273 272 271 271 270 269 268 267 265 263 263 261 261 260 259 259 258 257 256 256 255 254 254 253 251 252 256 258 259 258 257 256 254 252 250 249 248 247 248 248 247 245 245 246 247 249 250
283 283 283 282 281 281 281 280 280 281 280 278 278 277 276 274 273 272 272 271 270 270 269 269 267 266 265 264 263 262 261 260 259 258 256 255 254 254 254 253 251 251 254 256 256 256 255 255 253 252 251 250 250 250 249 249 249 247 246 246 246 248 249
276 277 278 278 279 279 280 280 281 281 280 280 280 280 279 277 276 274 273 272 272 272 272 271 269 268 268 267 265 264 262 261 260 258 257 256 254 254 254 253 252 251 252 254 255 256 256 255 254 254 254 253 253 251 249 250 250 248 247 247 247 247 247
271 271 272 273 274 276 277 278 279 280 280 280 280 281 281 280 279 277 276 275 275 274 273 272 271 270 270 269 267 266 264 262 260 259 258 256 255 253 253 253 252 252 252 253 254 255 256 256 256 256 257 255 253 250 249 249 249 247 245 245 245 245 245
276 273 271 270 270 272 273 274 276 277 278 279 280 280 281 280 280 279 278 278 277 276 275 273 272 271 271 270 268 267 265 263 262 260 259 257 256 254 253 253 253 252 252 252 252 254 255 256 255 256 256 254 252 249 247 246 246 245 245 244 244 244 245
285 281 277 274 272 271 270 271 272 273 275 277 278 279 279 279 279 279 279 278 278 277 276 275 274 273 272 270 268 268 267 265 264 262 260 259 257 256 254 253 253 253 251 251 251 252 253 254 254 254 253 252 250 248 246 245 245 245 245 245 245 245 246
288 286 283 280 277 274 272 270 270 270 272 274 276 277 277 278 278 278 278 277 277 277 276 275 274 274 273 271 270 269 269 268 266 264 262 261 259 257 255 254 253 252 251 250 250 249 249 251 252 253 252 251 249 246 245 244 243 243 244 246 247 249 249
290 287 285 283 282 280 276 273 270 269 270 272 274 275 276 277 278 278 277 277 277 276 275 274 274 273 272 272 271 272 271 270 268 266 265 263 260 258 256 255 253 252 251 250 249 248 248 248 249 249 248 247 244 241 240 240 240 243 246 247 249 251 250
291 289 287 285 283 281 279 276 274 272 271 271 272 274 275 276 277 277 277 277 276 276 275 274 273 272 272 271 272 272 272 271 270 267 266 265 261 258 256 255 253 251 250 249 247 247 246 244 246 246 245 243 242 241 242 241 242 245 248 249 251 251 251
292 291 289 287 285 282 280 278 276 274 273 272 272 273 274 274 275 275 276 276 275 275 274 274 274 273 273 272 272 271 271 271 270 268 267 265 263 260 258 255 253 252 250 248 247 247 245 243 245 246 244 245 245 245 244 244 244 246 249 250 251 252 252
295 293 291 289 287 285 283 280 278 275 273 272 272 273 273 273 273 273 274 274 274 274 274 275 275 275 274 273 272 271 270 270 269 268 267 265 263 261 259 257 254 253 251 249 248 248 246 244 246 247 245 245 245 244 243 244 246 248 249 250 251 253 254
298 297 296 293 291 289 287 285 282 279 277 274 273 274 276 276 275 274 273 272 273 273 274 275 275 275 275 274 273 272 271 270 269 268 267 265 263 261 260 258 256 254 252 251 250 249 248 247 248 248 246 246 245 244 245 246 247 248 250 251 252 254 255
301 300 299 298 296 294 293 292 290 287 284 280 276 275 276 278 277 277 276 275 275 275 275 275 276 275 275 274 274 273 272 271 270 269 267 265 263 261 259 257 256 255 253 252 252 251 251 251 251 250 250 249 248 247 247 247 247 248 250 252 254 256 258
306 304 303 302 300 299 298 298 298 296 293 289 283 279 276 275 274 275 276 276 277 277 277 277 277 276 275 275 275 274 273 272 271 270 268 266 264 262 260 257 256 254 252 250 250 250 252 253 253 253 255 254 252 251 250 249 249 251 253 256 258 260 261
313 311 309 307 305 302 301 301 301 300 297 293 288 284 279 275 272 272 272 273 275 276 277 277 277 276 276 276 276 275 275 274 273 272 270 268 266 264 262 260 258 256 253 251 250 251 252 253 253 254 255 256 255 253 251 251 253 255 257 259 259 259 258
317 316 315 312 310 307 304 304 303 301 298 294 290 287 283 278 275 274 273 272 273 273 274 275 275 275 275 275 275 275 275 275 274 273 271 269 267 266 264 262 261 259 256 254 253 253 253 253 253 253 253 253 252 251 249 250 251 252 253 254 255 255 255
318 318 318 316 315 313 310 308 307 304 300 296 292 290 286 281 279 278 276 276 274 273 273 273 273 273 274 275 275 275 275 275 273 271 270 270 269 267 265 264 263 259 258 256 254 253 253 252 251 251 251 251 251 251 249 248 249 249 249 251 252 253 254
318 318 318 317 317 317 315 313 312 308 304 298 294 291 287 283 281 280 279 279 278 277 276 275 274 273 273 274 274 275 276 275 272 270 269 269 269 267 265 265 263 260 259 258 255 252 249 247 247 248 249 249 249 250 250 248 248 249 250 250 251 252 254
319 318 318 318 318 319 318 317 315 313 308 302 297 293 288 284 282 281 281 281 281 280 279 278 278 277 275 275 274 274 274 274 272 270 269 269 267 265 265 266 263 261 262 260 258 255 250 247 246 246 246 246 247 247 248 249 249 248 248 249 250 251 252
318 317 318 319 320 320 321 321 320 318 314 309 303 296 290 285 282 282 282 282 281 280 280 279 279 278 277 277 276 275 274 273 272 270 270 268 264 262 266 268 266 264 264 262 260 260 256 252 250 246 244 245 245 245 245 247 248 248 247 248 250 251 250
316 315 315 317 319 320 321 322 322 322 321 316 309 302 295 288 284 282 283 283 282 281 282 282 282 281 280 280 279 277 276 273 272 271 270 268 265 266 268 268 266 264 263 261 260 259 256 254 251 246 244 244 244 245 245 245 246 248 249 249 250 250 250
314 313 312 314 315 316 318 319 320 321 323 322 316 308 300 293 288 285 284 284 283 282 282 283 283 283 283 283 282 280 278 275 273 271 270 268 268 269 268 264 263 263 261 259 257 256 254 253 250 247 245 243 243 244 246 247 247 248 249 250 251 251 251
313 312 311 312 312 313 315 316 317 319 323 324 321 314 305 298 292 289 286 283 282 282 282 281 281 282 284 285 284 282 279 277 274 270 268 269 268 267 264 261 260 259 258 256 255 253 252 252 251 249 248 247 246 246 247 249 250 250 250 249 249 250 251
313 313 312 312 312 313 314 314 315 317 321 322 321 318 313 306 299 293 288 283 282 283 283 282 281 279 279 282 283 283 280 277 274 269 266 266 266 264 262 259 256 255 255 253 252 251 251 252 252 252 252 252 252 251 250 250 250 249 249 248 248 248 250
313 313 313 313 314 313 314 314 315 316 318 318 318 319 318 314 307 301 294 287 285 285 286 285 283 279 275 272 274 279 279 276 272 267 263 261 260 258 258 256 255 254 252 251 251 251 252 253 254 255 256 256 254 253 250 248 247 245 246 247 248 248 249
313 313 313 313 314 314 313 314 315 315 316 316 314 315 318 319 314 309 302 295 291 289 289 288 285 282 277 271 268 271 273 272 270 266 260 256 253 251 251 252 253 252 251 251 252 253 255 257 258 258 257 255 252 250 249 247 246 245 245 246 247 248 247
313 313 314 315 315 314 313 313 314 315 317 317 316 316 319 320 319 317 311 305 301 297 293 290 288 285 281 275 270 267 266 266 265 261 256 252 249 246 246 247 250 252 254 255 256 257 259 260 258 256 255 253 251 250 250 250 250 248 247 246 247 248 249
313 312 313 313 313 312 311 311 312 315 317 318 317 317 317 317 318 318 316 312 309 305 301 296 292 288 285 280 274 268 262 259 256 254 252 249 245 244 244 244 245 249 252 255 257 257 257 256 254 253 253 253 253 253 254 254 255 253 251 250 250 250 251
309 308 310 310 309 310 310 309 310 313 314 313 312 312 311 310 312 314 313 312 311 308 304 300 297 293 290 287 282 276 267 259 253 251 249 246 244 244 245 244 243 243 246 249 251 252 252 251 251 252 252 252 253 255 256 258 258 258 257 255 254 254 254
304 305 307 306 305 305 304 304 305 307 307 306 306 307 306 304 304 306 306 308 309 305 301 301 301 298 294 290 287 282 274 264 256 251 248 246 245 245 245 245 244 242 242 244 247 249 250 250 250 250 251 252 253 256 258 259 258 258 257 256 255 257 258
304 304 303 303 303 304 302 300 301 302 301 301 303 303 303 301 300 299 300 303 304 301 299 301 304 302 298 292 284 278 272 265 259 253 250 249 246 244 243 244 244 243 243 245 247 248 249 248 249 251 253 255 257 258 258 258 256 255 255 255 255 257 259
309 306 304 303 304 305 304 303 302 301 300 300 301 301 300 299 298 296 295 296 296 295 296 302 306 306 303 297 286 276 270 265 259 253 249 247 245 243 243 245 247 249 249 250 250 251 251 252 254 256 257 258 258 257 255 254 253 252 252 253 254 256 257
312 310 308 307 306 305 305 304 302 301 299 299 299 299 298 297 295 294 294 294 292 291 294 300 304 305 305 302 294 284 276 269 263 258 253 251 250 250 252 254 258 260 260 259 258 257 256 256 256 256 257 257 256 254 253 252 252 252 252 252 253 254 255
314 313 310 309 308 307 306 304 301 299 298 298 298 298 299 297 295 293 292 291 289 289 291 295 299 301 303 303 299 293 285 277 270 266 263 262 262 263 264 266 268 269 268 267 265 262 259 257 255 254 253 253 252 252 252 251 251 251 251 251 251 252 253
315 314 312 310 310 310 309 306 302 299 298 298 299 300 301 299 297 296 295 292 289 288 289 291 293 296 298 300 299 297 293 287 281 276 272 271 270 271 271 272 273 273 273 272 269 266 264 262 259 256 254 253 252 252 252 251 251 251 251 252 252 253 253
312 314 313 311 311 313 311 307 303 301 300 300 301 302 302 302 301 301 300 297 295 293 291 290 289 291 292 294 295 295 294 292 289 286 282 280 279 278 278 278 277 277 277 275 273 271 269 266 263 261 258 256 255 254 254 254 254 254 254 254 254 255 255